Hourly Data Report for October 27, 2019

QUALICUM BEACH AIRPORT
BRITISH COLUMBIA
Current Station Operator: ECCC - MSC

49°20'14.000" N
124°23'38.000" W
58.20 m
1026562
71766
VOQ

Download Data

Hourly Data (October 2019)
Hourly Data Report for October 27, 2019
TIME
LST
Temp Definition
°C
Dew Point Definition
°C
Rel Hum Definition
%
Precip. Amount Definition
mm

Wind Dir Definition
10's deg

Wind Spd Definition
km/h
Visibility Definition
km
Stn Press Definition
kPa
Hmdx Definition


Wind Chill Definition


Weather Definition


00:00 5.4 0.3 70 0.0 27 7   102.75     LegendNANA
01:00 6.4 -0.8 60 0.0 29 7   102.77     LegendNANA
02:00 3.9 0.4 78 0.0 27 3   102.78     LegendNANA
03:00 2.4 -0.1 83 0.0 22 4   102.74     LegendNANA
04:00 1.5 -0.6 86 0.0 24 3   102.70     LegendNANA
05:00 1.0 -0.5 90 0.0 24 3   102.72     LegendNANA
06:00 0.5 -1.0 90 0.0 25 1   102.71     LegendNANA
07:00 -0.6 -1.8 91 0.0 22 2   102.71   -1 LegendNANA
08:00 1.0 -0.8 88 0.0 22 2   102.73     LegendNANA
09:00 4.8 0.9 76 0.0 0 1   102.70     LegendNANA
10:00 9.0 -0.9 50 0.0 31 7   102.66     LegendNANA
11:00 10.1 -0.5 48 0.0 32 6   102.61     LegendNANA
12:00 10.4 0.7 51 0.0 30 10   102.57     LegendNANA
13:00 10.4 2.6 59 0.0 33 9   102.50     LegendNANA
14:00 10.7 1.1 52 0.0 30 10   102.44     LegendNANA
15:00 10.9 -1.8 41 0.0 32 8   102.37     LegendNANA
16:00 10.2 -1.2 45 0.0 32 5   102.33     LegendNANA
17:00 6.4 0.6 66 0.0 25 2   102.25     LegendNANA
18:00 4.4 1.3 80 0.0 26 2   102.23     LegendNANA
19:00 2.8 1.0 88 0.0 26 1   102.20     LegendNANA
20:00 2.3 0.2 86 0.0 26 2   102.13     LegendNANA
21:00 1.8 -0.1 88 0.0 26 4   102.12     LegendNANA
22:00 2.9 -0.9 76 0.0 28 6   102.08     LegendNANA
23:00 1.4 -0.7 86 0.0 27 3   102.05     LegendNANA

Notes on Data Quality.

Legend

  • E = Estimated
  • M = Missing
  • NA = Not Available*
  • [empty] = Indicates an unobserved value
Date modified: